KLM107 EHRD-LICC

Flight info

Callsign KLM107
Flight time N/A
Altitude 37000
Route LUNIX2A LUNIX Z739 MISGO DCT ASBON DCT TUSUK DCT UTABA/N0445F390 DCT BEMKI DCT ELMEM DCT GIRIS DCT SUMIR DCT VIC/N0445F410 DCT SOVUB DCT UNUMU DCT MOPUV DCT SIPRO DCT PEVIR DCT NERAR DCT TADIX DCT PELEN DCT UXUTA
Aircraft A319/M-SDE3FGHIRWY/L

Departure

Time N/A
Airport Rotterdam The Hague Airport (EHRD)

Arrival

Time 2026-05-01 09:46
Airport Catania-Fontanarossa Airport (LICC)
Time Latitude Longitude Altitude Speed Heading
2026-05-01 07:23 51.83112 6.10455 30401 ft 409 kts 130°
2026-05-01 07:23 51.79354 6.17346 31381 ft 408 kts 131°
2026-05-01 07:24 51.77477 6.20772 31874 ft 407 kts 131°
2026-05-01 07:24 51.75605 6.24189 32360 ft 406 kts 131°
2026-05-01 07:24 51.73738 6.27598 32848 ft 405 kts 131°
2026-05-01 07:24 51.71869 6.31008 33321 ft 405 kts 131°
2026-05-01 07:25 51.70005 6.34402 33783 ft 404 kts 131°
2026-05-01 07:25 51.68143 6.37789 34209 ft 404 kts 131°
2026-05-01 07:25 51.66277 6.41175 34601 ft 404 kts 131°
2026-05-01 07:25 51.64413 6.44554 34964 ft 403 kts 131°
2026-05-01 07:26 51.62556 6.47921 35326 ft 403 kts 131°
2026-05-01 07:26 51.60696 6.51289 35695 ft 402 kts 131°
2026-05-01 07:26 51.58840 6.54640 36067 ft 401 kts 131°
2026-05-01 07:26 51.56984 6.57986 36421 ft 400 kts 131°
2026-05-01 07:27 51.55157 6.61280 36750 ft 399 kts 131°
2026-05-01 07:27 51.53315 6.64602 37093 ft 398 kts 131°
2026-05-01 07:27 51.51467 6.67922 37319 ft 399 kts 131°
2026-05-01 07:28 51.47772 6.74545 37354 ft 398 kts 131°
2026-05-01 07:28 51.44077 6.81139 37359 ft 398 kts 131°
2026-05-01 07:29 51.40230 6.87511 37358 ft 401 kts 140°
2026-05-01 07:29 51.35529 6.92584 37359 ft 415 kts 147°
2026-05-01 07:30 51.30548 6.97571 37357 ft 430 kts 147°
2026-05-01 07:30 51.25406 7.02735 37361 ft 443 kts 147°
2026-05-01 07:31 51.20248 7.07911 37361 ft 447 kts 147°
2026-05-01 07:32 51.07034 7.21086 37379 ft 449 kts 147°
2026-05-01 07:33 50.99096 7.28959 37383 ft 449 kts 147°
2026-05-01 07:33 50.91148 7.36803 37383 ft 449 kts 147°
2026-05-01 07:34 50.83223 7.44585 37379 ft 449 kts 147°
2026-05-01 07:35 50.77914 7.49784 37380 ft 449 kts 147°
2026-05-01 07:35 50.72608 7.54979 37379 ft 449 kts 147°
2026-05-01 07:36 50.67347 7.60285 37379 ft 449 kts 146°
2026-05-01 07:36 50.62143 7.65738 37378 ft 449 kts 145°
2026-05-01 07:37 50.54327 7.73893 37376 ft 450 kts 146°
2026-05-01 07:37 50.49084 7.79282 37381 ft 450 kts 146°
2026-05-01 07:38 50.43831 7.84664 37389 ft 451 kts 146°
2026-05-01 07:39 50.35942 7.92700 37387 ft 451 kts 146°
2026-05-01 07:39 50.28057 8.00732 37391 ft 451 kts 146°
2026-05-01 07:40 50.23688 8.05182 37392 ft 451 kts 146°
2026-05-01 07:40 50.18418 8.10524 37391 ft 452 kts 146°
2026-05-01 07:41 50.13094 8.15715 37389 ft 452 kts 152°
2026-05-01 07:42 50.04527 8.21942 37399 ft 453 kts 154°
2026-05-01 07:42 49.98823 8.26069 37403 ft 452 kts 154°
2026-05-01 07:43 49.93111 8.30180 37405 ft 452 kts 154°
2026-05-01 07:43 49.84547 8.36318 37404 ft 452 kts 154°
2026-05-01 07:44 49.73134 8.44458 37389 ft 451 kts 154°
2026-05-01 07:45 49.67435 8.48514 37384 ft 451 kts 154°
2026-05-01 07:45 49.61728 8.52560 37383 ft 451 kts 154°
2026-05-01 07:46 49.56023 8.56590 37383 ft 451 kts 154°
2026-05-01 07:47 49.47459 8.62631 37379 ft 451 kts 154°
2026-05-01 07:47 49.41784 8.66617 37375 ft 451 kts 154°
2026-05-01 07:48 49.33211 8.72625 37358 ft 451 kts 154°
2026-05-01 07:48 49.27492 8.76625 37348 ft 452 kts 154°
2026-05-01 07:49 49.18905 8.82596 37333 ft 452 kts 154°
2026-05-01 07:50 49.13177 8.86563 37324 ft 452 kts 154°
2026-05-01 07:50 49.04573 8.92524 37323 ft 453 kts 154°
2026-05-01 07:51 48.98831 8.96475 37324 ft 453 kts 154°
2026-05-01 07:52 48.90217 9.02386 37329 ft 453 kts 154°
2026-05-01 07:52 48.84471 9.06325 37332 ft 453 kts 154°
2026-05-01 07:53 48.75845 9.12221 37340 ft 454 kts 154°
2026-05-01 07:53 48.70086 9.16147 37342 ft 454 kts 154°
2026-05-01 07:55 48.55648 9.25928 37747 ft 455 kts 154°
2026-05-01 07:55 48.49871 9.29830 38172 ft 454 kts 154°
2026-05-01 07:56 48.41224 9.35641 38853 ft 453 kts 154°
2026-05-01 07:56 48.35457 9.39502 39240 ft 453 kts 154°
2026-05-01 07:57 48.32573 9.41426 39324 ft 454 kts 154°
2026-05-01 07:58 48.21775 9.50747 39357 ft 448 kts 138°
2026-05-01 07:59 48.12130 9.62638 39364 ft 449 kts 138°
2026-05-01 08:00 47.97793 9.80148 39366 ft 449 kts 138°
2026-05-01 08:01 47.88094 9.91924 39356 ft 449 kts 138°
2026-05-01 08:02 47.80816 10.00723 39354 ft 449 kts 138°
2026-05-01 08:03 47.73540 10.09488 39348 ft 449 kts 137°
2026-05-01 08:03 47.66287 10.18196 39338 ft 448 kts 137°
2026-05-01 08:04 47.56575 10.29795 39325 ft 448 kts 139°
2026-05-01 08:05 47.48765 10.37530 39318 ft 451 kts 143°
2026-05-01 08:06 47.40889 10.45167 39323 ft 451 kts 143°
2026-05-01 08:07 47.30388 10.55312 39327 ft 452 kts 143°
2026-05-01 08:07 47.24726 10.59445 39329 ft 457 kts 154°
2026-05-01 08:08 47.21793 10.61239 39333 ft 457 kts 154°
2026-05-01 08:09 47.10042 10.68433 39352 ft 458 kts 154°
2026-05-01 08:09 47.04153 10.72037 39362 ft 459 kts 154°
2026-05-01 08:10 46.92379 10.79213 39370 ft 460 kts 154°
2026-05-01 08:11 46.80526 10.86389 39368 ft 462 kts 154°
2026-05-01 08:12 46.74826 10.90608 39373 ft 457 kts 143°
2026-05-01 08:12 46.72156 10.93123 39372 ft 457 kts 143°
2026-05-01 08:13 46.64112 11.00643 39382 ft 459 kts 143°
2026-05-01 08:13 46.56047 11.08138 39391 ft 459 kts 143°
2026-05-01 08:14 46.50658 11.13138 39385 ft 460 kts 143°
2026-05-01 08:14 46.45264 11.18129 39383 ft 460 kts 143°
2026-05-01 08:15 46.37150 11.25626 39384 ft 462 kts 144°
2026-05-01 08:16 46.31724 11.30612 39387 ft 462 kts 144°
2026-05-01 08:16 46.26244 11.35494 39384 ft 465 kts 150°
2026-05-01 08:17 46.20185 11.38907 39385 ft 469 kts 157°
2026-05-01 08:17 46.14031 11.42066 39388 ft 470 kts 157°
2026-05-01 08:18 46.07869 11.45231 39386 ft 470 kts 158°
2026-05-01 08:19 45.95512 11.51532 39396 ft 471 kts 158°
2026-05-01 08:19 45.89314 11.54689 39401 ft 472 kts 158°
2026-05-01 08:20 45.83152 11.57814 39406 ft 473 kts 158°
2026-05-01 08:20 45.76953 11.60954 39410 ft 473 kts 158°
2026-05-01 08:21 45.70749 11.64098 39497 ft 471 kts 158°
2026-05-01 08:21 45.67662 11.65655 39681 ft 470 kts 158°
2026-05-01 08:21 45.64577 11.67207 39864 ft 470 kts 158°
2026-05-01 08:22 45.58372 11.70274 39789 ft 473 kts 159°
2026-05-01 08:22 45.52253 11.73218 39573 ft 474 kts 159°
2026-05-01 08:22 45.49142 11.74697 39754 ft 469 kts 159°
2026-05-01 08:23 45.46056 11.76167 39986 ft 467 kts 159°
2026-05-01 08:23 45.42984 11.77633 40220 ft 465 kts 160°
2026-05-01 08:23 45.39921 11.79097 40456 ft 463 kts 160°
2026-05-01 08:23 45.36878 11.80556 40692 ft 461 kts 160°
2026-05-01 08:24 45.33842 11.82014 40936 ft 459 kts 160°
2026-05-01 08:24 45.30817 11.83467 41180 ft 457 kts 160°
2026-05-01 08:24 45.27814 11.84907 41364 ft 457 kts 160°
2026-05-01 08:25 45.21748 11.87808 41408 ft 463 kts 160°
2026-05-01 08:25 45.15627 11.90725 41406 ft 471 kts 160°
2026-05-01 08:26 45.09394 11.93687 41403 ft 473 kts 160°
2026-05-01 08:26 45.03146 11.96642 41403 ft 474 kts 160°
2026-05-01 08:27 44.96886 11.99597 41401 ft 474 kts 160°
2026-05-01 08:27 44.90624 12.02555 41408 ft 475 kts 160°
2026-05-01 08:28 44.84367 12.05554 41411 ft 475 kts 160°
2026-05-01 08:28 44.78107 12.08571 41417 ft 476 kts 160°
2026-05-01 08:29 44.71836 12.11572 41417 ft 476 kts 160°
2026-05-01 08:29 44.65559 12.14558 41422 ft 477 kts 160°
2026-05-01 08:30 44.59272 12.17554 41419 ft 477 kts 160°
2026-05-01 08:30 44.53053 12.20504 41419 ft 478 kts 160°
2026-05-01 08:31 44.46744 12.23479 41424 ft 478 kts 160°
2026-05-01 08:31 44.41508 12.25955 41424 ft 478 kts 160°
2026-05-01 08:32 44.35197 12.28935 41425 ft 479 kts 161°
2026-05-01 08:32 44.28879 12.31905 41430 ft 479 kts 161°
2026-05-01 08:33 44.22555 12.34881 41429 ft 480 kts 161°
2026-05-01 08:33 44.16226 12.37840 41430 ft 480 kts 161°
2026-05-01 08:34 44.09885 12.40793 41424 ft 481 kts 161°
2026-05-01 08:34 44.03537 12.43756 41400 ft 481 kts 161°
2026-05-01 08:35 43.97227 12.46696 41397 ft 482 kts 161°
2026-05-01 08:35 43.90863 12.49651 41397 ft 483 kts 161°
2026-05-01 08:36 43.84489 12.52604 41394 ft 483 kts 161°
2026-05-01 08:36 43.78113 12.55547 41395 ft 484 kts 161°
2026-05-01 08:37 43.71719 12.58497 41387 ft 484 kts 162°
2026-05-01 08:37 43.65322 12.61428 41378 ft 485 kts 162°
2026-05-01 08:38 43.58918 12.64364 41370 ft 485 kts 162°
2026-05-01 08:38 43.52506 12.67300 41365 ft 486 kts 161°
2026-05-01 08:39 43.46082 12.70234 41359 ft 486 kts 162°
2026-05-01 08:39 43.39648 12.73145 41351 ft 487 kts 162°
2026-05-01 08:40 43.29925 12.77227 41337 ft 487 kts 163°
2026-05-01 08:40 43.23468 12.79881 41337 ft 488 kts 163°
2026-05-01 08:41 43.16976 12.82598 41338 ft 488 kts 163°
2026-05-01 08:41 43.10482 12.85313 41336 ft 488 kts 163°
2026-05-01 08:42 43.03992 12.88029 41334 ft 488 kts 163°
2026-05-01 08:42 42.97497 12.90729 41329 ft 487 kts 163°
2026-05-01 08:43 42.91009 12.93426 41320 ft 487 kts 163°
2026-05-01 08:43 42.84532 12.96111 41308 ft 486 kts 164°
2026-05-01 08:44 42.78062 12.98786 41308 ft 486 kts 164°
2026-05-01 08:44 42.71584 13.01447 41303 ft 486 kts 164°
2026-05-01 08:45 42.65114 13.04100 41294 ft 485 kts 164°
2026-05-01 08:45 42.58644 13.06758 41290 ft 486 kts 164°
2026-05-01 08:46 42.52172 13.09425 41287 ft 486 kts 164°
2026-05-01 08:46 42.45690 13.12085 41283 ft 487 kts 164°
2026-05-01 08:47 42.39196 13.14725 41281 ft 487 kts 164°
2026-05-01 08:47 42.32690 13.17368 41285 ft 488 kts 164°
2026-05-01 08:48 42.26185 13.20010 41288 ft 488 kts 164°
2026-05-01 08:48 42.19727 13.22642 41285 ft 488 kts 164°
2026-05-01 08:49 42.13270 13.25264 41282 ft 488 kts 164°
2026-05-01 08:49 42.06775 13.27908 41281 ft 488 kts 161°
2026-05-01 08:50 42.00599 13.31717 41284 ft 488 kts 154°
2026-05-01 08:50 41.94492 13.35720 41282 ft 489 kts 154°
2026-05-01 08:51 41.88378 13.39708 41291 ft 488 kts 155°
2026-05-01 08:51 41.82276 13.43681 41283 ft 487 kts 155°
2026-05-01 08:52 41.76173 13.47656 41274 ft 487 kts 155°
2026-05-01 08:52 41.70083 13.51613 41274 ft 486 kts 155°
2026-05-01 08:53 41.63998 13.55551 41268 ft 486 kts 155°
2026-05-01 08:53 41.57918 13.59476 41258 ft 485 kts 155°
2026-05-01 08:54 41.51843 13.63390 41249 ft 485 kts 155°
2026-05-01 08:54 41.45802 13.67212 41244 ft 484 kts 160°
2026-05-01 08:55 41.39349 13.69498 41240 ft 479 kts 171°
2026-05-01 08:55 41.32856 13.71256 41241 ft 479 kts 171°
2026-05-01 08:56 41.26330 13.73038 41237 ft 479 kts 171°
2026-05-01 08:56 41.19799 13.74828 41234 ft 479 kts 171°
2026-05-01 08:57 41.13270 13.76600 41234 ft 479 kts 171°
2026-05-01 08:57 41.06736 13.78367 41231 ft 479 kts 172°
2026-05-01 08:58 41.00201 13.80138 41223 ft 479 kts 172°
2026-05-01 08:58 40.93668 13.81919 41225 ft 479 kts 172°
2026-05-01 08:59 40.87132 13.83680 41221 ft 480 kts 172°
2026-05-01 08:59 40.80586 13.85440 41228 ft 480 kts 172°
2026-05-01 09:00 40.74034 13.87205 41229 ft 480 kts 172°
2026-05-01 09:00 40.67481 13.88960 41229 ft 480 kts 173°
2026-05-01 09:01 40.60931 13.90699 41228 ft 480 kts 173°
2026-05-01 09:01 40.54375 13.92437 41227 ft 481 kts 173°
2026-05-01 09:02 40.47815 13.94195 41231 ft 481 kts 173°
2026-05-01 09:02 40.41300 13.95944 41224 ft 481 kts 173°
2026-05-01 09:03 40.34735 13.97686 41228 ft 481 kts 173°
2026-05-01 09:03 40.28165 13.99418 41240 ft 481 kts 173°
2026-05-01 09:04 40.21606 14.01213 41238 ft 482 kts 172°
2026-05-01 09:04 40.15051 14.03097 41237 ft 482 kts 172°
2026-05-01 09:05 40.08501 14.04965 41238 ft 481 kts 172°
2026-05-01 09:05 40.01956 14.06809 41240 ft 481 kts 172°
2026-05-01 09:06 39.95412 14.08647 41241 ft 481 kts 172°
2026-05-01 09:06 39.88877 14.10479 41238 ft 480 kts 173°
2026-05-01 09:07 39.82343 14.12300 41233 ft 480 kts 173°
2026-05-01 09:07 39.75814 14.14118 41229 ft 480 kts 173°
2026-05-01 09:08 39.69287 14.15945 41233 ft 480 kts 173°
2026-05-01 09:08 39.62809 14.17748 41230 ft 479 kts 173°
2026-05-01 09:09 39.56283 14.19547 41225 ft 479 kts 173°
2026-05-01 09:09 39.49762 14.21353 41224 ft 479 kts 173°
2026-05-01 09:10 39.46498 14.22259 41088 ft 482 kts 173°
2026-05-01 09:10 39.43215 14.23164 40820 ft 480 kts 173°
2026-05-01 09:10 39.39966 14.24063 40579 ft 475 kts 173°
2026-05-01 09:10 39.36744 14.24953 40332 ft 472 kts 174°
2026-05-01 09:11 39.33543 14.25835 40093 ft 469 kts 174°
2026-05-01 09:11 39.30352 14.26709 39855 ft 466 kts 174°
2026-05-01 09:11 39.27178 14.27488 39527 ft 464 kts 176°
2026-05-01 09:11 39.23992 14.28155 39070 ft 463 kts 178°
2026-05-01 09:12 39.20804 14.28753 38565 ft 463 kts 179°
2026-05-01 09:12 39.17613 14.29325 37979 ft 464 kts 179°
2026-05-01 09:12 39.14409 14.29905 37387 ft 465 kts 179°
2026-05-01 09:12 39.11207 14.30504 36808 ft 466 kts 179°
2026-05-01 09:13 39.07998 14.31131 36246 ft 467 kts 179°
2026-05-01 09:13 39.04788 14.31775 35694 ft 467 kts 179°
2026-05-01 09:13 39.01580 14.32425 35157 ft 467 kts 179°
2026-05-01 09:13 38.98376 14.33071 34624 ft 466 kts 179°
2026-05-01 09:14 38.95170 14.33713 34095 ft 465 kts 180°
2026-05-01 09:14 38.91976 14.34352 33498 ft 464 kts 180°
2026-05-01 09:14 38.88791 14.34983 32934 ft 462 kts 180°
2026-05-01 09:14 38.85619 14.35612 32413 ft 459 kts 180°
2026-05-01 09:15 38.82467 14.36234 31896 ft 456 kts 180°
2026-05-01 09:15 38.79375 14.36832 31408 ft 453 kts 181°
2026-05-01 09:15 38.76265 14.37416 30907 ft 450 kts 181°
2026-05-01 09:15 38.73175 14.37989 30427 ft 447 kts 181°
2026-05-01 09:16 38.70103 14.38558 29883 ft 445 kts 181°
2026-05-01 09:16 38.67052 14.39126 29323 ft 442 kts 181°
2026-05-01 09:16 38.64020 14.39692 28775 ft 439 kts 181°
2026-05-01 09:17 38.58006 14.40810 27704 ft 434 kts 180°
2026-05-01 09:17 38.55028 14.41369 27188 ft 431 kts 180°
2026-05-01 09:17 38.49119 14.42468 26168 ft 427 kts 180°
2026-05-01 09:18 38.46190 14.43010 25686 ft 424 kts 180°
2026-05-01 09:18 38.40369 14.44099 24732 ft 421 kts 179°
2026-05-01 09:19 38.34595 14.45243 23808 ft 421 kts 174°
2026-05-01 09:19 38.31786 14.46392 23267 ft 428 kts 162°
2026-05-01 09:19 38.29082 14.47983 22721 ft 427 kts 160°
2026-05-01 09:20 38.24637 14.50633 21846 ft 422 kts 160°
2026-05-01 09:20 38.19353 14.53778 20820 ft 416 kts 160°
2026-05-01 09:21 38.14154 14.56856 19825 ft 409 kts 159°
2026-05-01 09:21 38.11588 14.58369 19356 ft 405 kts 159°
2026-05-01 09:21 38.06592 14.61317 19152 ft 381 kts 160°
2026-05-01 09:22 38.01908 14.64089 19160 ft 367 kts 160°
2026-05-01 09:22 37.97278 14.66810 19158 ft 366 kts 160°
2026-05-01 09:23 37.96816 14.67080 19155 ft 366 kts 160°
2026-05-01 09:23 37.92039 14.69236 18881 ft 356 kts 176°
2026-05-01 09:24 37.87343 14.68837 18171 ft 329 kts 207°
2026-05-01 09:24 37.85355 14.67548 17735 ft 316 kts 222°
2026-05-01 09:24 37.82641 14.63509 16857 ft 296 kts 250°
2026-05-01 09:25 37.80888 14.58831 16011 ft 294 kts 250°
2026-05-01 09:25 37.79120 14.54187 15188 ft 292 kts 250°
2026-05-01 09:26 37.78239 14.51882 14837 ft 291 kts 250°
2026-05-01 09:26 37.76106 14.47537 14130 ft 300 kts 229°
2026-05-01 09:26 37.74340 14.46078 13743 ft 310 kts 209°
2026-05-01 09:27 37.70014 14.45585 12965 ft 321 kts 179°
2026-05-01 09:27 37.67818 14.45833 12808 ft 312 kts 179°
2026-05-01 09:27 37.65700 14.46265 12671 ft 308 kts 163°
2026-05-01 09:28 37.63897 14.47667 12444 ft 307 kts 135°
2026-05-01 09:28 37.62781 14.49912 12171 ft 302 kts 105°
2026-05-01 09:28 37.62549 14.52495 11858 ft 294 kts 81°
2026-05-01 09:28 37.62729 14.55062 11538 ft 293 kts 81°
2026-05-01 09:29 37.63090 14.60157 11131 ft 291 kts 81°
2026-05-01 09:29 37.63268 14.62697 11143 ft 291 kts 81°
2026-05-01 09:30 37.63613 14.67718 11154 ft 292 kts 81°
2026-05-01 09:30 37.63616 14.70270 10994 ft 294 kts 101°
2026-05-01 09:30 37.61066 14.73971 10444 ft 287 kts 165°
2026-05-01 09:31 37.59127 14.74434 10159 ft 283 kts 176°
2026-05-01 09:31 37.57177 14.74687 9893 ft 279 kts 186°
2026-05-01 09:31 37.54158 14.72511 9621 ft 243 kts 245°
2026-05-01 09:32 37.53643 14.70558 9485 ft 231 kts 268°
2026-05-01 09:32 37.53303 14.66618 9024 ft 224 kts 268°
2026-05-01 09:32 37.53134 14.64668 8731 ft 224 kts 268°
2026-05-01 09:33 37.52965 14.62723 8438 ft 223 kts 267°
2026-05-01 09:33 37.52794 14.60779 8155 ft 223 kts 268°
2026-05-01 09:33 37.52451 14.56900 7589 ft 223 kts 268°
2026-05-01 09:34 37.52282 14.54962 7293 ft 223 kts 267°
2026-05-01 09:34 37.52111 14.53025 7017 ft 222 kts 268°
2026-05-01 09:34 37.51766 14.49177 6411 ft 222 kts 267°
2026-05-01 09:35 37.51588 14.47250 6077 ft 223 kts 265°
2026-05-01 09:35 37.49613 14.44409 5430 ft 234 kts 193°
2026-05-01 09:35 37.47987 14.44431 5089 ft 236 kts 173°
2026-05-01 09:36 37.46360 14.44670 5007 ft 236 kts 173°
2026-05-01 09:36 37.44726 14.44911 5011 ft 237 kts 173°
2026-05-01 09:36 37.43151 14.45468 5013 ft 237 kts 147°
2026-05-01 09:36 37.42029 14.46929 5007 ft 233 kts 115°
2026-05-01 09:37 37.41675 14.48865 5008 ft 227 kts 84°
2026-05-01 09:37 37.42021 14.52820 5018 ft 228 kts 80°
2026-05-01 09:37 37.42200 14.54801 5023 ft 228 kts 80°
2026-05-01 09:38 37.42552 14.58769 5032 ft 228 kts 81°
2026-05-01 09:38 37.42727 14.60746 5027 ft 227 kts 81°
2026-05-01 09:38 37.42902 14.62727 5033 ft 228 kts 81°
2026-05-01 09:39 37.43239 14.66571 5037 ft 218 kts 81°
2026-05-01 09:39 37.43406 14.68458 5041 ft 218 kts 81°
2026-05-01 09:39 37.43572 14.70346 5038 ft 214 kts 80°
2026-05-01 09:40 37.43727 14.72146 5057 ft 201 kts 80°
2026-05-01 09:40 37.43970 14.75596 4860 ft 198 kts 84°
2026-05-01 09:40 37.44041 14.77310 4608 ft 196 kts 84°
2026-05-01 09:41 37.44140 14.79005 4354 ft 193 kts 81°
2026-05-01 09:41 37.44519 14.82307 3854 ft 189 kts 76°
2026-05-01 09:41 37.44809 14.83912 3597 ft 187 kts 75°
2026-05-01 09:42 37.45116 14.85505 3401 ft 186 kts 76°
2026-05-01 09:42 37.45203 14.87121 3198 ft 184 kts 92°
2026-05-01 09:42 37.45214 14.90109 2793 ft 158 kts 83°
2026-05-01 09:43 37.45511 14.92635 2342 ft 141 kts 83°
2026-05-01 09:43 37.45670 14.93832 2067 ft 138 kts 81°
2026-05-01 09:43 37.45852 14.95034 1685 ft 136 kts 81°
2026-05-01 09:44 37.45869 14.97354 1201 ft 130 kts 90°
2026-05-01 09:44 37.45966 14.98492 1028 ft 132 kts 85°
2026-05-01 09:44 37.46088 14.99625 838 ft 130 kts 85°
2026-05-01 09:45 37.46156 15.00752 701 ft 129 kts 89°
2026-05-01 09:45 37.46342 15.03003 434 ft 128 kts 85°
2026-05-01 09:45 37.46457 15.04119 267 ft 128 kts 81°
2026-05-01 09:46 37.46559 15.05230 81 ft 127 kts 81°
2026-05-01 09:46 37.46654 15.06270 23 ft 114 kts 84°
2026-05-01 09:46 37.46721 15.07143 22 ft 80 kts 83°
2026-05-01 09:46 37.46758 15.07570 23 ft 10 kts 84°
2026-05-01 09:47 37.46784 15.07647 23 ft 12 kts 62°
2026-05-01 09:47 37.46844 15.07751 23 ft 18 kts 53°
2026-05-01 09:47 37.46931 15.07784 22 ft 17 kts 301°
2026-05-01 09:47 37.46927 15.07627 22 ft 20 kts 263°
2026-05-01 09:48 37.46910 15.07440 22 ft 23 kts 265°
2026-05-01 09:48 37.46895 15.07231 22 ft 25 kts 265°
2026-05-01 09:48 37.46874 15.06999 22 ft 28 kts 263°
2026-05-01 09:48 37.46856 15.06776 22 ft 11 kts 267°
2026-05-01 09:49 37.46850 15.06718 23 ft 8 kts 263°
2026-05-01 09:49 37.46892 15.06684 22 ft 9 kts 358°
2026-05-01 09:49 37.46925 15.06681 22 ft 0 kts 353°